T7VRE EETN-UKOO

Flight info

Callsign T7VRE
Flight time 3h 19m
Altitude 29000
Route NITSO DCT VALGA P171 DUBIN M854 ODSAN
Aircraft EPIC/L-SDGRWXY/SB2

Departure

Time 2026-05-07 06:56
Airport Lennart Meri Tallinn Airport (EETN)

Arrival

Time 2026-05-07 10:16
Airport Odesa International Airport (UKOO)
Time Latitude Longitude Altitude Speed Heading
2026-05-07 06:47 59.41549 24.83388 143 ft 0 kts 360°
2026-05-07 06:52 59.41563 24.83385 143 ft 8 kts 332°
2026-05-07 06:52 59.41570 24.83218 143 ft 14 kts 271°
2026-05-07 06:52 59.41563 24.83090 143 ft 6 kts 208°
2026-05-07 06:52 59.41522 24.83088 142 ft 7 kts 182°
2026-05-07 06:53 59.41502 24.83017 143 ft 9 kts 278°
2026-05-07 06:53 59.41499 24.82777 142 ft 25 kts 268°
2026-05-07 06:53 59.41504 24.82478 142 ft 16 kts 268°
2026-05-07 06:53 59.41497 24.82224 141 ft 25 kts 280°
2026-05-07 06:54 59.41485 24.81915 142 ft 19 kts 208°
2026-05-07 06:54 59.41424 24.81898 141 ft 0 kts 181°
2026-05-07 06:55 59.41357 24.81909 141 ft 18 kts 154°
2026-05-07 06:56 59.41328 24.82280 141 ft 59 kts 94°
2026-05-07 06:56 59.41288 24.83616 294 ft 118 kts 95°
2026-05-07 06:56 59.41229 24.85253 855 ft 127 kts 87°
2026-05-07 06:56 59.41249 24.86992 1509 ft 131 kts 88°
2026-05-07 06:57 59.40860 24.88559 2061 ft 143 kts 140°
2026-05-07 06:57 59.39904 24.89150 2613 ft 157 kts 174°
2026-05-07 06:57 59.38757 24.89173 3040 ft 172 kts 172°
2026-05-07 06:57 59.37564 24.89380 3524 ft 175 kts 173°
2026-05-07 06:58 59.36386 24.89484 3805 ft 162 kts 171°
2026-05-07 06:58 59.35210 24.89635 3939 ft 174 kts 171°
2026-05-07 06:58 59.33953 24.89807 3990 ft 190 kts 171°
2026-05-07 06:58 59.32662 24.89975 4522 ft 174 kts 170°
2026-05-07 06:59 59.31549 24.90124 5132 ft 154 kts 169°
2026-05-07 06:59 59.30497 24.90274 5477 ft 152 kts 169°
2026-05-07 06:59 59.29431 24.90425 5822 ft 155 kts 169°
2026-05-07 06:59 59.28367 24.90572 6266 ft 155 kts 169°
2026-05-07 07:00 59.27294 24.90722 6713 ft 156 kts 169°
2026-05-07 07:00 59.26212 24.90869 7141 ft 157 kts 169°
2026-05-07 07:00 59.25128 24.91022 7567 ft 159 kts 170°
2026-05-07 07:00 59.24019 24.91174 8002 ft 159 kts 171°
2026-05-07 07:01 59.22915 24.91326 8420 ft 161 kts 171°
2026-05-07 07:01 59.21791 24.91479 8848 ft 163 kts 172°
2026-05-07 07:01 59.20677 24.91633 9268 ft 164 kts 173°
2026-05-07 07:01 59.19532 24.91789 9678 ft 166 kts 173°
2026-05-07 07:02 59.18386 24.91946 10092 ft 167 kts 174°
2026-05-07 07:02 59.17212 24.92105 10531 ft 168 kts 174°
2026-05-07 07:02 59.16061 24.92261 10969 ft 168 kts 175°
2026-05-07 07:02 59.14900 24.92419 11405 ft 168 kts 175°
2026-05-07 07:03 59.13753 24.92575 11810 ft 168 kts 176°
2026-05-07 07:03 59.12589 24.92733 12201 ft 168 kts 176°
2026-05-07 07:03 59.11427 24.92892 12587 ft 169 kts 176°
2026-05-07 07:03 59.10253 24.93051 12984 ft 169 kts 177°
2026-05-07 07:04 59.09086 24.93210 13372 ft 170 kts 177°
2026-05-07 07:04 59.07913 24.93370 13761 ft 170 kts 178°
2026-05-07 07:04 59.06732 24.93528 14155 ft 170 kts 178°
2026-05-07 07:04 59.05569 24.93687 14533 ft 170 kts 179°
2026-05-07 07:05 59.04384 24.93846 14922 ft 171 kts 179°
2026-05-07 07:05 59.03193 24.94007 15302 ft 171 kts 179°
2026-05-07 07:05 59.02015 24.94168 15670 ft 172 kts 180°
2026-05-07 07:05 59.00814 24.94328 16031 ft 174 kts 180°
2026-05-07 07:06 58.99623 24.94490 16406 ft 174 kts 180°
2026-05-07 07:06 58.98414 24.94654 16787 ft 174 kts 181°
2026-05-07 07:06 58.97213 24.94817 17164 ft 175 kts 181°
2026-05-07 07:06 58.95997 24.94979 17533 ft 175 kts 181°
2026-05-07 07:07 58.94792 24.95142 17896 ft 176 kts 182°
2026-05-07 07:07 58.93574 24.95308 18276 ft 176 kts 182°
2026-05-07 07:07 58.92369 24.95470 18629 ft 177 kts 182°
2026-05-07 07:07 58.91140 24.95637 19013 ft 176 kts 183°
2026-05-07 07:08 58.89922 24.95801 19392 ft 176 kts 183°
2026-05-07 07:08 58.88688 24.95964 19760 ft 177 kts 183°
2026-05-07 07:08 58.87473 24.96128 20129 ft 177 kts 183°
2026-05-07 07:08 58.86232 24.96294 20501 ft 178 kts 184°
2026-05-07 07:09 58.85009 24.96457 20867 ft 178 kts 184°
2026-05-07 07:09 58.83777 24.96624 21242 ft 178 kts 184°
2026-05-07 07:09 58.82550 24.96789 21625 ft 177 kts 184°
2026-05-07 07:09 58.81320 24.96955 21995 ft 177 kts 185°
2026-05-07 07:10 58.80125 24.97827 22344 ft 192 kts 162°
2026-05-07 07:10 58.78942 24.99023 22680 ft 194 kts 163°
2026-05-07 07:10 58.77763 25.00215 23048 ft 194 kts 163°
2026-05-07 07:10 58.76568 25.01428 23409 ft 194 kts 163°
2026-05-07 07:11 58.75382 25.02631 23771 ft 194 kts 164°
2026-05-07 07:11 58.74190 25.03838 24116 ft 196 kts 164°
2026-05-07 07:11 58.72978 25.05065 24463 ft 197 kts 162°
2026-05-07 07:11 58.71775 25.06292 24833 ft 197 kts 164°
2026-05-07 07:12 58.70572 25.07509 25158 ft 199 kts 164°
2026-05-07 07:12 58.69343 25.08756 25533 ft 199 kts 165°
2026-05-07 07:12 58.68123 25.09993 25873 ft 200 kts 165°
2026-05-07 07:12 58.66884 25.11248 26245 ft 201 kts 165°
2026-05-07 07:13 58.65659 25.12487 26608 ft 202 kts 165°
2026-05-07 07:13 58.64418 25.13742 26963 ft 203 kts 165°
2026-05-07 07:13 58.63179 25.14993 27299 ft 204 kts 165°
2026-05-07 07:13 58.61924 25.16257 27665 ft 205 kts 165°
2026-05-07 07:14 58.60672 25.17519 28015 ft 206 kts 165°
2026-05-07 07:14 58.59394 25.18810 28362 ft 207 kts 165°
2026-05-07 07:14 58.58128 25.20087 28731 ft 207 kts 165°
2026-05-07 07:14 58.56852 25.21368 28979 ft 213 kts 166°
2026-05-07 07:15 58.55502 25.22713 29005 ft 228 kts 165°
2026-05-07 07:15 58.54060 25.24156 29006 ft 241 kts 164°
2026-05-07 07:15 58.52552 25.25671 28997 ft 249 kts 164°
2026-05-07 07:15 58.51004 25.27226 28986 ft 254 kts 164°
2026-05-07 07:16 58.49455 25.28779 28973 ft 254 kts 164°
2026-05-07 07:16 58.47890 25.30346 28984 ft 254 kts 164°
2026-05-07 07:16 58.46325 25.31911 28986 ft 255 kts 164°
2026-05-07 07:16 58.44758 25.33475 28980 ft 255 kts 164°
2026-05-07 07:17 58.43203 25.35030 28972 ft 255 kts 165°
2026-05-07 07:17 58.41633 25.36593 28973 ft 255 kts 165°
2026-05-07 07:17 58.40058 25.38160 28979 ft 255 kts 165°
2026-05-07 07:17 58.38491 25.39714 28979 ft 255 kts 165°
2026-05-07 07:18 58.36906 25.41294 28979 ft 255 kts 165°
2026-05-07 07:18 58.35348 25.42836 28970 ft 256 kts 165°
2026-05-07 07:18 58.33767 25.44408 28973 ft 255 kts 165°
2026-05-07 07:18 58.32208 25.45951 28965 ft 255 kts 165°
2026-05-07 07:19 58.30632 25.47511 28964 ft 255 kts 166°
2026-05-07 07:19 58.29060 25.49061 28975 ft 255 kts 165°
2026-05-07 07:19 58.27484 25.50616 28975 ft 255 kts 165°
2026-05-07 07:19 58.25924 25.52158 28966 ft 255 kts 165°
2026-05-07 07:20 58.24361 25.53701 28957 ft 254 kts 166°
2026-05-07 07:20 58.22790 25.55248 28961 ft 254 kts 166°
2026-05-07 07:20 58.21240 25.56768 28963 ft 254 kts 166°
2026-05-07 07:20 58.19676 25.58307 28966 ft 254 kts 166°
2026-05-07 07:21 58.18112 25.59840 28970 ft 253 kts 166°
2026-05-07 07:21 58.16544 25.61375 28970 ft 253 kts 166°
2026-05-07 07:21 58.14982 25.62907 28965 ft 254 kts 166°
2026-05-07 07:21 58.13433 25.64423 28972 ft 254 kts 166°
2026-05-07 07:22 58.11853 25.65966 28962 ft 253 kts 167°
2026-05-07 07:22 58.10297 25.67485 28956 ft 253 kts 167°
2026-05-07 07:22 58.08754 25.68996 28963 ft 252 kts 167°
2026-05-07 07:22 58.07191 25.70512 28958 ft 252 kts 167°
2026-05-07 07:23 58.05647 25.72020 28970 ft 251 kts 167°
2026-05-07 07:23 58.04088 25.73535 28971 ft 251 kts 167°
2026-05-07 07:23 58.02542 25.75037 28962 ft 251 kts 167°
2026-05-07 07:23 58.01008 25.76528 28959 ft 250 kts 167°
2026-05-07 07:24 57.99469 25.78019 28963 ft 250 kts 168°
2026-05-07 07:24 57.97929 25.79510 28968 ft 249 kts 167°
2026-05-07 07:24 57.96393 25.80998 28968 ft 249 kts 167°
2026-05-07 07:24 57.94857 25.82485 28962 ft 249 kts 168°
2026-05-07 07:25 57.91794 25.85441 28963 ft 249 kts 168°
2026-05-07 07:25 57.90250 25.86926 28962 ft 248 kts 167°
2026-05-07 07:25 57.88712 25.88409 28968 ft 249 kts 167°
2026-05-07 07:26 57.87163 25.89898 28965 ft 249 kts 167°
2026-05-07 07:26 57.85621 25.91382 28965 ft 249 kts 169°
2026-05-07 07:26 57.84057 25.92328 28989 ft 237 kts 178°
2026-05-07 07:26 57.82471 25.93209 28965 ft 238 kts 178°
2026-05-07 07:27 57.80895 25.94077 28972 ft 238 kts 178°
2026-05-07 07:27 57.79301 25.94953 28967 ft 239 kts 177°
2026-05-07 07:27 57.77703 25.95831 28965 ft 239 kts 177°
2026-05-07 07:27 57.76129 25.96693 28963 ft 239 kts 177°
2026-05-07 07:28 57.74535 25.97566 28966 ft 239 kts 177°
2026-05-07 07:28 57.72936 25.98444 28969 ft 239 kts 177°
2026-05-07 07:28 57.71330 25.99319 28969 ft 239 kts 178°
2026-05-07 07:28 57.69747 26.00182 28966 ft 239 kts 177°
2026-05-07 07:29 57.68139 26.01060 28957 ft 240 kts 177°
2026-05-07 07:29 57.66541 26.01929 28959 ft 240 kts 177°
2026-05-07 07:29 57.64943 26.02799 28964 ft 240 kts 177°
2026-05-07 07:29 57.63349 26.03669 28959 ft 240 kts 177°
2026-05-07 07:30 57.61769 26.04527 28960 ft 240 kts 177°
2026-05-07 07:30 57.60164 26.05401 28961 ft 240 kts 177°
2026-05-07 07:30 57.58564 26.06266 28960 ft 240 kts 177°
2026-05-07 07:30 57.56962 26.07138 28954 ft 240 kts 177°
2026-05-07 07:31 57.55358 26.08002 28950 ft 240 kts 176°
2026-05-07 07:31 57.53753 26.08872 28945 ft 240 kts 177°
2026-05-07 07:31 57.52156 26.09736 28946 ft 241 kts 177°
2026-05-07 07:31 57.50560 26.10598 28947 ft 241 kts 176°
2026-05-07 07:32 57.48959 26.11460 28949 ft 241 kts 176°
2026-05-07 07:32 57.47343 26.12332 28947 ft 241 kts 176°
2026-05-07 07:32 57.45734 26.13201 28941 ft 241 kts 176°
2026-05-07 07:32 57.44143 26.14055 28945 ft 241 kts 176°
2026-05-07 07:33 57.42525 26.14924 28936 ft 241 kts 176°
2026-05-07 07:33 57.40924 26.15782 28937 ft 241 kts 176°
2026-05-07 07:33 57.39310 26.16650 28940 ft 241 kts 176°
2026-05-07 07:33 57.37715 26.17506 28937 ft 241 kts 176°
2026-05-07 07:34 57.36110 26.18364 28934 ft 241 kts 176°
2026-05-07 07:34 57.34488 26.19235 28932 ft 241 kts 176°
2026-05-07 07:34 57.32893 26.20086 28932 ft 241 kts 176°
2026-05-07 07:34 57.31273 26.20954 28930 ft 241 kts 176°
2026-05-07 07:35 57.29680 26.21802 28928 ft 241 kts 176°
2026-05-07 07:35 57.28067 26.22663 28929 ft 241 kts 176°
2026-05-07 07:35 57.26465 26.23512 28924 ft 241 kts 176°
2026-05-07 07:35 57.24850 26.24376 28926 ft 241 kts 176°
2026-05-07 07:36 57.23248 26.25227 28930 ft 240 kts 175°
2026-05-07 07:36 57.21645 26.26076 28933 ft 240 kts 176°
2026-05-07 07:36 57.20057 26.26920 28929 ft 241 kts 176°
2026-05-07 07:36 57.18438 26.27779 28929 ft 241 kts 175°
2026-05-07 07:37 57.16850 26.28623 28929 ft 241 kts 175°
2026-05-07 07:37 57.15239 26.29473 28925 ft 241 kts 176°
2026-05-07 07:37 57.13618 26.30331 28930 ft 241 kts 175°
2026-05-07 07:37 57.12006 26.31180 28928 ft 241 kts 175°
2026-05-07 07:38 57.10408 26.32026 28925 ft 242 kts 175°
2026-05-07 07:38 57.08789 26.32882 28925 ft 242 kts 175°
2026-05-07 07:38 57.07174 26.33732 28927 ft 242 kts 175°
2026-05-07 07:38 57.05560 26.34578 28927 ft 242 kts 175°
2026-05-07 07:39 57.03962 26.35417 28926 ft 242 kts 175°
2026-05-07 07:39 57.02331 26.36279 28911 ft 242 kts 175°
2026-05-07 07:39 57.00732 26.37119 28914 ft 242 kts 175°
2026-05-07 07:39 56.99121 26.37964 28919 ft 241 kts 176°
2026-05-07 07:40 56.97506 26.38812 28923 ft 242 kts 175°
2026-05-07 07:40 56.95897 26.39650 28904 ft 242 kts 174°
2026-05-07 07:40 56.94275 26.40498 28912 ft 242 kts 174°
2026-05-07 07:40 56.92657 26.41348 28910 ft 242 kts 175°
2026-05-07 07:41 56.91034 26.42192 28901 ft 242 kts 176°
2026-05-07 07:41 56.89400 26.43046 28907 ft 242 kts 174°
2026-05-07 07:41 56.87797 26.43881 28927 ft 243 kts 175°
2026-05-07 07:41 56.86177 26.44726 28916 ft 243 kts 175°
2026-05-07 07:42 56.84547 26.45573 28909 ft 244 kts 174°
2026-05-07 07:42 56.82922 26.46418 28915 ft 244 kts 174°
2026-05-07 07:42 56.81275 26.47274 28922 ft 245 kts 174°
2026-05-07 07:42 56.79651 26.48115 28903 ft 245 kts 174°
2026-05-07 07:43 56.78000 26.48975 28911 ft 245 kts 174°
2026-05-07 07:43 56.76369 26.49816 28898 ft 246 kts 174°
2026-05-07 07:43 56.74728 26.50666 28903 ft 246 kts 174°
2026-05-07 07:43 56.73067 26.51527 28893 ft 247 kts 173°
2026-05-07 07:44 56.71434 26.52373 28892 ft 247 kts 175°
2026-05-07 07:44 56.69780 26.53228 28905 ft 247 kts 174°
2026-05-07 07:44 56.68140 26.54071 28902 ft 247 kts 174°
2026-05-07 07:44 56.66489 26.54922 28897 ft 248 kts 174°
2026-05-07 07:45 56.64831 26.55773 28896 ft 248 kts 173°
2026-05-07 07:45 56.63170 26.56629 28893 ft 248 kts 174°
2026-05-07 07:45 56.61531 26.57471 28904 ft 247 kts 174°
2026-05-07 07:45 56.59878 26.58319 28908 ft 247 kts 173°
2026-05-07 07:46 56.58223 26.59162 28895 ft 248 kts 173°
2026-05-07 07:46 56.56548 26.60025 28893 ft 249 kts 173°
2026-05-07 07:46 56.54893 26.60872 28897 ft 248 kts 174°
2026-05-07 07:46 56.53234 26.61722 28904 ft 248 kts 174°
2026-05-07 07:47 56.51577 26.62567 28890 ft 249 kts 174°
2026-05-07 07:47 56.49910 26.63414 28904 ft 249 kts 174°
2026-05-07 07:47 56.48235 26.64268 28893 ft 250 kts 173°
2026-05-07 07:47 56.46573 26.65113 28896 ft 250 kts 174°
2026-05-07 07:48 56.44873 26.65982 28887 ft 250 kts 175°
2026-05-07 07:48 56.43221 26.66822 28885 ft 250 kts 174°
2026-05-07 07:48 56.41542 26.67677 28886 ft 250 kts 174°
2026-05-07 07:48 56.39865 26.68528 28886 ft 250 kts 173°
2026-05-07 07:49 56.38204 26.69373 28883 ft 250 kts 175°
2026-05-07 07:49 56.36534 26.70217 28878 ft 250 kts 175°
2026-05-07 07:49 56.34858 26.71065 28876 ft 250 kts 174°
2026-05-07 07:49 56.33178 26.71915 28873 ft 250 kts 174°
2026-05-07 07:50 56.31506 26.72760 28871 ft 250 kts 174°
2026-05-07 07:50 56.29837 26.73603 28876 ft 250 kts 173°
2026-05-07 07:50 56.28162 26.74451 28873 ft 250 kts 174°
2026-05-07 07:50 56.26506 26.75285 28867 ft 250 kts 174°
2026-05-07 07:51 56.24829 26.76131 28860 ft 250 kts 174°
2026-05-07 07:51 56.23172 26.76964 28864 ft 250 kts 175°
2026-05-07 07:51 56.21492 26.77805 28864 ft 250 kts 174°
2026-05-07 07:51 56.19826 26.78642 28867 ft 250 kts 174°
2026-05-07 07:52 56.18153 26.79486 28855 ft 250 kts 174°
2026-05-07 07:52 56.16488 26.80320 28864 ft 250 kts 174°
2026-05-07 07:52 56.14804 26.81162 28858 ft 250 kts 174°
2026-05-07 07:52 56.13133 26.82001 28855 ft 250 kts 174°
2026-05-07 07:53 56.11470 26.82835 28861 ft 251 kts 173°
2026-05-07 07:53 56.09789 26.83673 28857 ft 251 kts 173°
2026-05-07 07:53 56.08105 26.84511 28856 ft 251 kts 173°
2026-05-07 07:53 56.06435 26.85347 28850 ft 252 kts 173°
2026-05-07 07:54 56.04735 26.86193 28853 ft 252 kts 174°
2026-05-07 07:54 56.03062 26.87026 28858 ft 252 kts 174°
2026-05-07 07:54 56.01369 26.87865 28851 ft 252 kts 173°
2026-05-07 07:54 55.99675 26.88706 28850 ft 252 kts 173°
2026-05-07 07:55 55.97995 26.89543 28851 ft 252 kts 173°
2026-05-07 07:55 55.96314 26.90379 28844 ft 252 kts 173°
2026-05-07 07:55 55.94625 26.91214 28842 ft 252 kts 173°
2026-05-07 07:55 55.92946 26.92048 28836 ft 252 kts 173°
2026-05-07 07:56 55.91242 26.92889 28835 ft 252 kts 173°
2026-05-07 07:56 55.89547 26.93727 28834 ft 252 kts 173°
2026-05-07 07:56 55.87856 26.94561 28841 ft 253 kts 173°
2026-05-07 07:56 55.86159 26.95399 28847 ft 253 kts 173°
2026-05-07 07:57 55.84464 26.96232 28852 ft 253 kts 173°
2026-05-07 07:57 55.82765 26.97069 28856 ft 253 kts 173°
2026-05-07 07:57 55.81088 26.97917 28858 ft 256 kts 170°
2026-05-07 07:57 55.79391 26.98942 28853 ft 256 kts 169°
2026-05-07 07:58 55.77718 26.99952 28852 ft 257 kts 169°
2026-05-07 07:58 55.76027 27.00973 28855 ft 257 kts 169°
2026-05-07 07:58 55.74345 27.01986 28853 ft 257 kts 169°
2026-05-07 07:58 55.72651 27.03007 28851 ft 257 kts 169°
2026-05-07 07:59 55.70961 27.04020 28854 ft 257 kts 169°
2026-05-07 07:59 55.69278 27.05035 28853 ft 257 kts 169°
2026-05-07 07:59 55.67577 27.06056 28851 ft 257 kts 169°
2026-05-07 07:59 55.65893 27.07065 28849 ft 257 kts 169°
2026-05-07 08:00 55.64198 27.08079 28848 ft 258 kts 169°
2026-05-07 08:00 55.62501 27.09097 28846 ft 258 kts 169°
2026-05-07 08:00 55.60821 27.10099 28844 ft 258 kts 169°
2026-05-07 08:00 55.59117 27.11115 28848 ft 258 kts 169°
2026-05-07 08:01 55.57423 27.12130 28845 ft 258 kts 169°
2026-05-07 08:01 55.55725 27.13144 28842 ft 258 kts 169°
2026-05-07 08:01 55.54030 27.14152 28845 ft 258 kts 169°
2026-05-07 08:01 55.52321 27.15170 28842 ft 259 kts 169°
2026-05-07 08:02 55.50614 27.16186 28843 ft 259 kts 169°
2026-05-07 08:02 55.48925 27.17191 28840 ft 259 kts 169°
2026-05-07 08:02 55.47224 27.18200 28836 ft 259 kts 169°
2026-05-07 08:02 55.45522 27.19208 28840 ft 259 kts 168°
2026-05-07 08:03 55.43830 27.20211 28841 ft 259 kts 169°
2026-05-07 08:03 55.42117 27.21225 28836 ft 259 kts 168°
2026-05-07 08:03 55.40430 27.22226 28839 ft 259 kts 169°
2026-05-07 08:03 55.38714 27.23238 28836 ft 259 kts 168°
2026-05-07 08:04 55.37014 27.24245 28837 ft 259 kts 169°
2026-05-07 08:04 55.35324 27.25242 28838 ft 259 kts 169°
2026-05-07 08:04 55.33604 27.26254 28838 ft 259 kts 169°
2026-05-07 08:04 55.31916 27.27251 28835 ft 259 kts 169°
2026-05-07 08:05 55.30207 27.28255 28832 ft 259 kts 169°
2026-05-07 08:05 55.28503 27.29255 28835 ft 259 kts 168°
2026-05-07 08:05 55.26806 27.30254 28841 ft 259 kts 168°
2026-05-07 08:05 55.25092 27.31257 28837 ft 259 kts 169°
2026-05-07 08:06 55.23395 27.32224 28839 ft 259 kts 169°
2026-05-07 08:06 55.21670 27.33202 28841 ft 259 kts 169°
2026-05-07 08:06 55.19964 27.34163 28844 ft 259 kts 169°
2026-05-07 08:06 55.18256 27.35120 28847 ft 259 kts 169°
2026-05-07 08:07 55.16547 27.36073 28845 ft 259 kts 169°
2026-05-07 08:07 55.14822 27.37028 28845 ft 259 kts 169°
2026-05-07 08:07 55.13123 27.37964 28848 ft 259 kts 169°
2026-05-07 08:07 55.11406 27.38905 28847 ft 259 kts 169°
2026-05-07 08:08 55.09678 27.39846 28845 ft 259 kts 169°
2026-05-07 08:08 55.07971 27.40770 28849 ft 259 kts 169°
2026-05-07 08:08 55.06258 27.41692 28848 ft 259 kts 170°
2026-05-07 08:08 55.04530 27.42617 28846 ft 259 kts 170°
2026-05-07 08:09 55.02832 27.43520 28844 ft 259 kts 170°
2026-05-07 08:09 55.01112 27.44430 28845 ft 259 kts 170°
2026-05-07 08:09 54.99396 27.45332 28840 ft 259 kts 170°
2026-05-07 08:09 54.97680 27.46229 28842 ft 259 kts 170°
2026-05-07 08:10 54.95951 27.47126 28839 ft 259 kts 170°
2026-05-07 08:10 54.94218 27.48021 28836 ft 259 kts 170°
2026-05-07 08:10 54.92506 27.48900 28833 ft 259 kts 170°
2026-05-07 08:10 54.90779 27.49781 28838 ft 259 kts 170°
2026-05-07 08:11 54.89044 27.50661 28841 ft 259 kts 171°
2026-05-07 08:11 54.87320 27.51529 28837 ft 260 kts 170°
2026-05-07 08:11 54.85579 27.52400 28838 ft 260 kts 171°
2026-05-07 08:11 54.83866 27.53253 28836 ft 260 kts 171°
2026-05-07 08:12 54.82119 27.54116 28842 ft 260 kts 171°
2026-05-07 08:12 54.80394 27.54963 28841 ft 260 kts 171°
2026-05-07 08:12 54.78658 27.55810 28839 ft 260 kts 171°
2026-05-07 08:12 54.76914 27.56655 28838 ft 260 kts 171°
2026-05-07 08:13 54.75173 27.57493 28839 ft 260 kts 171°
2026-05-07 08:13 54.73426 27.58329 28842 ft 260 kts 171°
2026-05-07 08:13 54.71688 27.59154 28842 ft 260 kts 171°
2026-05-07 08:13 54.69964 27.59968 28836 ft 260 kts 171°
2026-05-07 08:14 54.68217 27.60787 28837 ft 260 kts 171°
2026-05-07 08:14 54.66467 27.61601 28836 ft 260 kts 171°
2026-05-07 08:14 54.64724 27.62407 28835 ft 260 kts 171°
2026-05-07 08:14 54.62994 27.63201 28832 ft 260 kts 171°
2026-05-07 08:15 54.61252 27.63996 28834 ft 260 kts 172°
2026-05-07 08:15 54.59508 27.64785 28834 ft 260 kts 172°
2026-05-07 08:15 54.57755 27.65574 28830 ft 260 kts 173°
2026-05-07 08:15 54.55989 27.66362 28826 ft 260 kts 173°
2026-05-07 08:16 54.54262 27.67129 28826 ft 259 kts 173°
2026-05-07 08:16 54.52501 27.67906 28831 ft 259 kts 173°
2026-05-07 08:16 54.50761 27.68668 28831 ft 259 kts 173°
2026-05-07 08:16 54.49023 27.69425 28830 ft 258 kts 172°
2026-05-07 08:17 54.47291 27.70175 28825 ft 258 kts 173°
2026-05-07 08:17 54.45548 27.70926 28832 ft 258 kts 173°
2026-05-07 08:17 54.43804 27.71672 28829 ft 258 kts 173°
2026-05-07 08:17 54.42075 27.72407 28832 ft 258 kts 173°
2026-05-07 08:18 54.40331 27.73143 28832 ft 258 kts 173°
2026-05-07 08:18 54.38596 27.73872 28828 ft 258 kts 173°
2026-05-07 08:18 54.36858 27.74596 28831 ft 258 kts 173°
2026-05-07 08:18 54.35121 27.75315 28834 ft 257 kts 173°
2026-05-07 08:19 54.33378 27.76032 28832 ft 258 kts 173°
2026-05-07 08:19 54.31656 27.76737 28837 ft 257 kts 173°
2026-05-07 08:19 54.29897 27.77451 28837 ft 258 kts 173°
2026-05-07 08:19 54.28173 27.78147 28843 ft 257 kts 173°
2026-05-07 08:20 54.26422 27.78850 28849 ft 257 kts 174°
2026-05-07 08:20 54.24691 27.79541 28850 ft 257 kts 174°
2026-05-07 08:20 54.22964 27.80226 28849 ft 257 kts 174°
2026-05-07 08:20 54.21211 27.80918 28852 ft 257 kts 174°
2026-05-07 08:21 54.19485 27.81596 28852 ft 257 kts 174°
2026-05-07 08:21 54.17755 27.82270 28850 ft 257 kts 174°
2026-05-07 08:21 54.15997 27.82950 28849 ft 257 kts 174°
2026-05-07 08:21 54.14272 27.83614 28849 ft 257 kts 174°
2026-05-07 08:22 54.12527 27.84281 28854 ft 257 kts 174°
2026-05-07 08:22 54.10772 27.84949 28856 ft 257 kts 173°
2026-05-07 08:22 54.09043 27.85600 28851 ft 257 kts 174°
2026-05-07 08:22 54.07289 27.86257 28857 ft 257 kts 174°
2026-05-07 08:23 54.05568 27.86901 28854 ft 257 kts 174°
2026-05-07 08:23 54.03813 27.87551 28842 ft 257 kts 175°
2026-05-07 08:23 54.02079 27.88189 28852 ft 257 kts 174°
2026-05-07 08:23 54.00335 27.88828 28853 ft 256 kts 174°
2026-05-07 08:24 53.98608 27.89458 28861 ft 256 kts 175°
2026-05-07 08:24 53.96854 27.90094 28851 ft 256 kts 174°
2026-05-07 08:24 53.95126 27.90717 28859 ft 256 kts 175°
2026-05-07 08:24 53.93395 27.91338 28854 ft 256 kts 174°
2026-05-07 08:25 53.91631 27.91968 28856 ft 256 kts 174°
2026-05-07 08:25 53.89889 27.92585 28859 ft 256 kts 175°
2026-05-07 08:25 53.88142 27.93201 28861 ft 257 kts 175°
2026-05-07 08:25 53.86399 27.93810 28858 ft 257 kts 175°
2026-05-07 08:26 53.82912 27.95017 28860 ft 258 kts 175°
2026-05-07 08:26 53.81144 27.95621 28862 ft 258 kts 175°
2026-05-07 08:26 53.79399 27.96213 28857 ft 258 kts 175°
2026-05-07 08:27 53.77631 27.96809 28859 ft 258 kts 175°
2026-05-07 08:27 53.75884 27.97393 28858 ft 258 kts 175°
2026-05-07 08:27 53.74117 27.97980 28855 ft 258 kts 175°
2026-05-07 08:27 53.72381 27.98552 28859 ft 258 kts 175°
2026-05-07 08:28 53.70614 27.99130 28857 ft 258 kts 175°
2026-05-07 08:28 53.68857 27.99700 28858 ft 258 kts 175°
2026-05-07 08:28 53.67107 28.00264 28853 ft 258 kts 175°
2026-05-07 08:28 53.65355 28.00824 28859 ft 257 kts 175°
2026-05-07 08:29 53.63582 28.01388 28863 ft 258 kts 175°
2026-05-07 08:29 53.61825 28.01942 28866 ft 258 kts 175°
2026-05-07 08:29 53.60081 28.02487 28859 ft 258 kts 175°
2026-05-07 08:29 53.58307 28.03037 28860 ft 259 kts 176°
2026-05-07 08:30 53.56550 28.03578 28863 ft 259 kts 176°
2026-05-07 08:30 53.54785 28.04117 28864 ft 259 kts 176°
2026-05-07 08:30 53.53016 28.04654 28871 ft 259 kts 176°
2026-05-07 08:30 53.51238 28.05189 28868 ft 259 kts 176°
2026-05-07 08:31 53.49482 28.05712 28866 ft 259 kts 176°
2026-05-07 08:31 53.47706 28.06238 28870 ft 259 kts 176°
2026-05-07 08:31 53.45948 28.06754 28876 ft 258 kts 176°
2026-05-07 08:31 53.44173 28.07270 28872 ft 259 kts 176°
2026-05-07 08:32 53.42403 28.07782 28876 ft 259 kts 176°
2026-05-07 08:32 53.40629 28.08290 28878 ft 259 kts 176°
2026-05-07 08:32 53.38877 28.08787 28878 ft 259 kts 176°
2026-05-07 08:32 53.37080 28.09293 28874 ft 259 kts 176°
2026-05-07 08:33 53.35313 28.09786 28878 ft 259 kts 176°
2026-05-07 08:33 53.33527 28.10281 28884 ft 259 kts 176°
2026-05-07 08:33 53.31753 28.10768 28885 ft 259 kts 176°
2026-05-07 08:33 53.29988 28.11248 28880 ft 260 kts 176°
2026-05-07 08:34 53.28231 28.12084 28905 ft 264 kts 166°
2026-05-07 08:34 53.26499 28.13130 28887 ft 265 kts 166°
2026-05-07 08:34 53.24788 28.14178 28885 ft 265 kts 166°
2026-05-07 08:34 53.23044 28.15245 28887 ft 265 kts 165°
2026-05-07 08:35 53.21314 28.16308 28887 ft 265 kts 165°
2026-05-07 08:35 53.19601 28.17359 28889 ft 265 kts 165°
2026-05-07 08:35 53.17855 28.18432 28890 ft 265 kts 166°
2026-05-07 08:35 53.16139 28.19481 28893 ft 265 kts 165°
2026-05-07 08:36 53.14395 28.20551 28897 ft 266 kts 165°
2026-05-07 08:36 53.12674 28.21605 28895 ft 266 kts 165°
2026-05-07 08:36 53.10930 28.22673 28893 ft 266 kts 165°
2026-05-07 08:36 53.09192 28.23732 28897 ft 266 kts 165°
2026-05-07 08:37 53.07477 28.24781 28897 ft 267 kts 165°
2026-05-07 08:37 53.05709 28.25861 28894 ft 267 kts 165°
2026-05-07 08:37 53.03966 28.26922 28892 ft 267 kts 165°
2026-05-07 08:37 53.02215 28.27990 28889 ft 267 kts 165°
2026-05-07 08:38 53.00490 28.29039 28881 ft 267 kts 165°
2026-05-07 08:38 52.98734 28.30106 28880 ft 268 kts 165°
2026-05-07 08:38 52.96986 28.31169 28882 ft 268 kts 165°
2026-05-07 08:38 52.95259 28.32214 28884 ft 268 kts 165°
2026-05-07 08:39 52.93507 28.33277 28890 ft 268 kts 165°
2026-05-07 08:39 52.91759 28.34339 28893 ft 268 kts 165°
2026-05-07 08:39 52.90016 28.35393 28889 ft 268 kts 165°
2026-05-07 08:39 52.88250 28.36462 28890 ft 268 kts 165°
2026-05-07 08:40 52.86518 28.37509 28886 ft 268 kts 165°
2026-05-07 08:40 52.84759 28.38571 28886 ft 268 kts 165°
2026-05-07 08:40 52.83022 28.39618 28885 ft 269 kts 165°
2026-05-07 08:40 52.81263 28.40678 28888 ft 269 kts 165°
2026-05-07 08:41 52.79495 28.41743 28890 ft 269 kts 165°
2026-05-07 08:41 52.77762 28.42786 28895 ft 269 kts 165°
2026-05-07 08:41 52.75993 28.43848 28892 ft 270 kts 165°
2026-05-07 08:41 52.74233 28.44908 28894 ft 270 kts 165°
2026-05-07 08:42 52.72480 28.45959 28894 ft 270 kts 165°
2026-05-07 08:42 52.70715 28.47017 28898 ft 270 kts 165°
2026-05-07 08:42 52.68956 28.48071 28900 ft 270 kts 164°
2026-05-07 08:42 52.67194 28.49126 28902 ft 270 kts 165°
2026-05-07 08:43 52.65443 28.50174 28900 ft 270 kts 165°
2026-05-07 08:43 52.63670 28.51234 28902 ft 270 kts 164°
2026-05-07 08:43 52.61900 28.52290 28905 ft 270 kts 164°
2026-05-07 08:43 52.60149 28.53334 28907 ft 271 kts 164°
2026-05-07 08:44 52.58372 28.54393 28912 ft 271 kts 164°
2026-05-07 08:44 52.56600 28.55449 28914 ft 271 kts 164°
2026-05-07 08:44 52.54837 28.56499 28913 ft 271 kts 164°
2026-05-07 08:44 52.53061 28.57555 28915 ft 271 kts 164°
2026-05-07 08:45 52.51299 28.58600 28918 ft 272 kts 164°
2026-05-07 08:45 52.49537 28.59648 28920 ft 272 kts 164°
2026-05-07 08:45 52.47745 28.60709 28923 ft 272 kts 164°
2026-05-07 08:45 52.45965 28.61766 28920 ft 272 kts 164°
2026-05-07 08:46 52.44187 28.62817 28923 ft 272 kts 164°
2026-05-07 08:46 52.42418 28.63862 28924 ft 272 kts 164°
2026-05-07 08:46 52.40638 28.64917 28924 ft 273 kts 164°
2026-05-07 08:46 52.38848 28.65971 28924 ft 273 kts 165°
2026-05-07 08:47 52.37062 28.67025 28924 ft 273 kts 165°
2026-05-07 08:47 52.35300 28.68065 28921 ft 273 kts 165°
2026-05-07 08:47 52.33514 28.69117 28921 ft 272 kts 165°
2026-05-07 08:47 52.31730 28.70166 28923 ft 272 kts 165°
2026-05-07 08:48 52.29959 28.71208 28923 ft 272 kts 165°
2026-05-07 08:48 52.28167 28.72261 28921 ft 273 kts 165°
2026-05-07 08:48 52.26400 28.73297 28919 ft 273 kts 165°
2026-05-07 08:48 52.24621 28.74341 28918 ft 272 kts 165°
2026-05-07 08:49 52.22835 28.75386 28921 ft 272 kts 164°
2026-05-07 08:49 52.21058 28.76428 28925 ft 272 kts 164°
2026-05-07 08:49 52.19268 28.77474 28930 ft 272 kts 164°
2026-05-07 08:49 52.17489 28.78420 28918 ft 271 kts 169°
2026-05-07 08:50 52.15671 28.79199 28926 ft 271 kts 169°
2026-05-07 08:50 52.13857 28.79981 28929 ft 271 kts 169°
2026-05-07 08:50 52.12035 28.80763 28931 ft 271 kts 169°
2026-05-07 08:50 52.10213 28.81546 28928 ft 271 kts 169°
2026-05-07 08:51 52.08410 28.82322 28930 ft 271 kts 169°
2026-05-07 08:51 52.06583 28.83105 28933 ft 271 kts 169°
2026-05-07 08:51 52.04762 28.83885 28935 ft 271 kts 169°
2026-05-07 08:51 52.02945 28.84663 28934 ft 272 kts 169°
2026-05-07 08:52 52.01133 28.85440 28936 ft 272 kts 169°
2026-05-07 08:52 51.99292 28.86227 28938 ft 272 kts 169°
2026-05-07 08:52 51.97467 28.87008 28935 ft 272 kts 169°
2026-05-07 08:52 51.95652 28.87781 28936 ft 272 kts 169°
2026-05-07 08:53 51.93809 28.88569 28940 ft 272 kts 169°
2026-05-07 08:53 51.92000 28.89340 28935 ft 272 kts 169°
2026-05-07 08:53 51.90162 28.90122 28936 ft 272 kts 169°
2026-05-07 08:53 51.88302 28.90912 28938 ft 272 kts 169°
2026-05-07 08:54 51.86470 28.91691 28938 ft 272 kts 169°
2026-05-07 08:54 51.84649 28.92464 28943 ft 272 kts 169°
2026-05-07 08:54 51.82810 28.93245 28942 ft 272 kts 169°
2026-05-07 08:54 51.80993 28.94016 28941 ft 272 kts 169°
2026-05-07 08:55 51.79165 28.94792 28941 ft 271 kts 169°
2026-05-07 08:55 51.77341 28.95562 28944 ft 271 kts 169°
2026-05-07 08:55 51.75523 28.96332 28947 ft 271 kts 168°
2026-05-07 08:55 51.73724 28.97091 28945 ft 271 kts 168°
2026-05-07 08:56 51.71881 28.97870 28946 ft 271 kts 168°
2026-05-07 08:56 51.70082 28.98629 28952 ft 270 kts 168°
2026-05-07 08:56 51.68251 28.99401 28952 ft 271 kts 168°
2026-05-07 08:56 51.66434 29.00166 28954 ft 271 kts 168°
2026-05-07 08:57 51.64608 29.00935 28947 ft 271 kts 168°
2026-05-07 08:57 51.62778 29.01703 28950 ft 271 kts 168°
2026-05-07 08:57 51.60954 29.02471 28952 ft 271 kts 168°
2026-05-07 08:57 51.59152 29.03223 28951 ft 271 kts 169°
2026-05-07 08:58 51.57315 29.03934 28955 ft 270 kts 169°
2026-05-07 08:58 51.55506 29.04638 28957 ft 271 kts 169°
2026-05-07 08:58 51.53681 29.05345 28958 ft 271 kts 169°
2026-05-07 08:58 51.51855 29.06050 28954 ft 271 kts 169°
2026-05-07 08:59 51.50020 29.06761 28955 ft 271 kts 169°
2026-05-07 08:59 51.48190 29.07467 28961 ft 271 kts 169°
2026-05-07 08:59 51.46364 29.08172 28961 ft 271 kts 169°
2026-05-07 08:59 51.44535 29.08879 28964 ft 271 kts 169°
2026-05-07 09:00 51.42684 29.09592 28965 ft 271 kts 169°
2026-05-07 09:00 51.40872 29.10289 28963 ft 271 kts 169°
2026-05-07 09:00 51.39040 29.10994 28968 ft 271 kts 169°
2026-05-07 09:00 51.37210 29.11698 28969 ft 271 kts 169°
2026-05-07 09:01 51.35366 29.12406 28967 ft 271 kts 169°
2026-05-07 09:01 51.33546 29.13105 28967 ft 272 kts 169°
2026-05-07 09:01 51.31702 29.13812 28971 ft 272 kts 168°
2026-05-07 09:01 51.29873 29.14513 28973 ft 272 kts 168°
2026-05-07 09:02 51.28033 29.15219 28973 ft 272 kts 168°
2026-05-07 09:02 51.26189 29.15925 28978 ft 272 kts 169°
2026-05-07 09:02 51.24366 29.16623 28979 ft 272 kts 169°
2026-05-07 09:02 51.22532 29.17323 28984 ft 272 kts 169°
2026-05-07 09:03 51.20685 29.18027 28990 ft 272 kts 169°
2026-05-07 09:03 51.18840 29.18731 28995 ft 272 kts 169°
2026-05-07 09:03 51.17023 29.19423 28996 ft 272 kts 169°
2026-05-07 09:03 51.15174 29.20127 28996 ft 272 kts 169°
2026-05-07 09:04 51.13356 29.20819 28998 ft 272 kts 169°
2026-05-07 09:04 51.11515 29.21519 28995 ft 272 kts 169°
2026-05-07 09:04 51.09670 29.22219 28996 ft 272 kts 169°
2026-05-07 09:04 51.07835 29.22914 28997 ft 272 kts 169°
2026-05-07 09:05 51.05986 29.23615 28997 ft 272 kts 168°
2026-05-07 09:05 51.04163 29.24307 28998 ft 272 kts 168°
2026-05-07 09:05 51.02315 29.25006 29004 ft 272 kts 168°
2026-05-07 09:05 51.00467 29.25706 29004 ft 273 kts 168°
2026-05-07 09:06 50.98639 29.26395 29001 ft 273 kts 168°
2026-05-07 09:06 50.96783 29.27097 29003 ft 273 kts 168°
2026-05-07 09:06 50.94954 29.27788 29001 ft 273 kts 168°
2026-05-07 09:06 50.93096 29.28489 29005 ft 273 kts 168°
2026-05-07 09:07 50.91250 29.29183 29007 ft 273 kts 168°
2026-05-07 09:07 50.89403 29.29878 29005 ft 274 kts 168°
2026-05-07 09:07 50.87548 29.30574 28996 ft 274 kts 168°
2026-05-07 09:07 50.85688 29.31274 28988 ft 274 kts 168°
2026-05-07 09:08 50.83847 29.31967 28985 ft 274 kts 168°
2026-05-07 09:08 50.82003 29.32658 28984 ft 274 kts 168°
2026-05-07 09:08 50.80150 29.33353 28987 ft 274 kts 168°
2026-05-07 09:08 50.78285 29.34053 28986 ft 275 kts 168°
2026-05-07 09:09 50.76433 29.34745 28986 ft 275 kts 168°
2026-05-07 09:09 50.74583 29.35438 28989 ft 275 kts 168°
2026-05-07 09:09 50.72720 29.36133 28990 ft 275 kts 168°
2026-05-07 09:09 50.70871 29.36824 28994 ft 275 kts 168°
2026-05-07 09:10 50.69014 29.37516 29000 ft 275 kts 168°
2026-05-07 09:10 50.67141 29.38213 29002 ft 275 kts 168°
2026-05-07 09:10 50.65289 29.38902 29004 ft 275 kts 168°
2026-05-07 09:10 50.63411 29.39602 29003 ft 276 kts 168°
2026-05-07 09:11 50.61550 29.40294 29004 ft 276 kts 168°
2026-05-07 09:11 50.59703 29.40981 29003 ft 276 kts 168°
2026-05-07 09:11 50.57822 29.41693 29003 ft 276 kts 167°
2026-05-07 09:11 50.55977 29.42421 29001 ft 276 kts 167°
2026-05-07 09:12 50.54108 29.43158 29003 ft 276 kts 167°
2026-05-07 09:12 50.52253 29.43889 29006 ft 276 kts 167°
2026-05-07 09:12 50.50396 29.44620 29009 ft 276 kts 167°
2026-05-07 09:12 50.48527 29.45354 29012 ft 276 kts 167°
2026-05-07 09:13 50.46658 29.46089 29017 ft 276 kts 167°
2026-05-07 09:13 50.44819 29.46811 29015 ft 276 kts 167°
2026-05-07 09:13 50.42943 29.47547 29015 ft 277 kts 167°
2026-05-07 09:13 50.41091 29.48274 29014 ft 277 kts 167°
2026-05-07 09:14 50.39211 29.49009 29020 ft 277 kts 167°
2026-05-07 09:14 50.37337 29.49740 29028 ft 277 kts 167°
2026-05-07 09:14 50.35486 29.50465 29024 ft 277 kts 167°
2026-05-07 09:14 50.33600 29.51201 29025 ft 277 kts 166°
2026-05-07 09:15 50.31743 29.51926 29024 ft 278 kts 166°
2026-05-07 09:15 50.29884 29.52653 29026 ft 278 kts 166°
2026-05-07 09:15 50.28005 29.53385 29029 ft 278 kts 166°
2026-05-07 09:15 50.26123 29.54118 29025 ft 278 kts 166°
2026-05-07 09:16 50.24269 29.54839 29028 ft 278 kts 167°
2026-05-07 09:16 50.22396 29.55569 29025 ft 278 kts 167°
2026-05-07 09:16 50.20533 29.56292 29027 ft 278 kts 166°
2026-05-07 09:16 50.18637 29.57017 29026 ft 277 kts 171°
2026-05-07 09:17 50.16747 29.57470 29032 ft 277 kts 172°
2026-05-07 09:17 50.14847 29.57915 29031 ft 277 kts 172°
2026-05-07 09:17 50.12937 29.58365 29033 ft 277 kts 172°
2026-05-07 09:17 50.11048 29.58810 29037 ft 277 kts 172°
2026-05-07 09:18 50.09134 29.59259 29039 ft 277 kts 172°
2026-05-07 09:18 50.07235 29.59703 29041 ft 278 kts 172°
2026-05-07 09:18 50.05332 29.60147 29045 ft 278 kts 172°
2026-05-07 09:18 50.03413 29.60598 29044 ft 278 kts 172°
2026-05-07 09:19 50.01518 29.61042 29041 ft 278 kts 172°
2026-05-07 09:19 49.99606 29.61491 29042 ft 278 kts 172°
2026-05-07 09:19 49.97706 29.61935 29040 ft 278 kts 172°
2026-05-07 09:19 49.95779 29.62385 29043 ft 278 kts 172°
2026-05-07 09:20 49.93878 29.62829 29040 ft 278 kts 172°
2026-05-07 09:20 49.91956 29.63277 29042 ft 278 kts 172°
2026-05-07 09:20 49.90040 29.63725 29044 ft 278 kts 172°
2026-05-07 09:20 49.88129 29.64168 29045 ft 278 kts 172°
2026-05-07 09:21 49.86211 29.64616 29042 ft 278 kts 172°
2026-05-07 09:21 49.84316 29.65056 29045 ft 278 kts 173°
2026-05-07 09:21 49.82388 29.65503 29042 ft 278 kts 173°
2026-05-07 09:21 49.80462 29.65949 29044 ft 278 kts 173°
2026-05-07 09:22 49.78542 29.66394 29044 ft 278 kts 173°
2026-05-07 09:22 49.76633 29.66837 29044 ft 278 kts 173°
2026-05-07 09:22 49.74744 29.67274 29046 ft 278 kts 172°
2026-05-07 09:22 49.72824 29.67720 29042 ft 278 kts 173°
2026-05-07 09:23 49.70924 29.68158 29046 ft 278 kts 172°
2026-05-07 09:23 49.69013 29.68600 29044 ft 278 kts 172°
2026-05-07 09:23 49.67099 29.69041 29044 ft 278 kts 172°
2026-05-07 09:23 49.65209 29.69478 29049 ft 278 kts 172°
2026-05-07 09:24 49.63315 29.70074 29049 ft 278 kts 169°
2026-05-07 09:24 49.61422 29.70696 29046 ft 278 kts 169°
2026-05-07 09:24 49.59547 29.71308 29052 ft 278 kts 169°
2026-05-07 09:24 49.57642 29.71931 29049 ft 278 kts 169°
2026-05-07 09:25 49.55764 29.72543 29048 ft 278 kts 169°
2026-05-07 09:25 49.53867 29.73161 29051 ft 278 kts 169°
2026-05-07 09:25 49.51986 29.73775 29051 ft 278 kts 169°
2026-05-07 09:25 49.50080 29.74395 29052 ft 278 kts 169°
2026-05-07 09:26 49.48186 29.75012 29048 ft 278 kts 169°
2026-05-07 09:26 49.46306 29.75623 29051 ft 278 kts 169°
2026-05-07 09:26 49.44416 29.76161 29048 ft 278 kts 171°
2026-05-07 09:26 49.42495 29.76664 29048 ft 278 kts 171°
2026-05-07 09:27 49.40590 29.77163 29053 ft 278 kts 171°
2026-05-07 09:27 49.38694 29.77657 29056 ft 278 kts 171°
2026-05-07 09:27 49.34880 29.78656 29057 ft 278 kts 171°
2026-05-07 09:28 49.32973 29.79154 29057 ft 279 kts 171°
2026-05-07 09:28 49.31065 29.79652 29057 ft 279 kts 171°
2026-05-07 09:28 49.29133 29.80154 29064 ft 279 kts 171°
2026-05-07 09:28 49.27227 29.80651 29070 ft 279 kts 171°
2026-05-07 09:29 49.25301 29.81153 29065 ft 279 kts 171°
2026-05-07 09:29 49.23388 29.81652 29063 ft 279 kts 171°
2026-05-07 09:29 49.21479 29.82148 29061 ft 279 kts 171°
2026-05-07 09:29 49.19577 29.82643 29061 ft 279 kts 171°
2026-05-07 09:30 49.17829 29.83095 29064 ft 279 kts 171°
2026-05-07 09:30 49.15897 29.83598 29064 ft 279 kts 171°
2026-05-07 09:30 49.13992 29.84091 29061 ft 279 kts 171°
2026-05-07 09:30 49.12089 29.84584 29060 ft 279 kts 171°
2026-05-07 09:31 49.10177 29.85079 29066 ft 279 kts 171°
2026-05-07 09:31 49.08258 29.85573 29068 ft 279 kts 171°
2026-05-07 09:31 49.06345 29.86068 29067 ft 279 kts 171°
2026-05-07 09:31 49.04426 29.86564 29066 ft 279 kts 171°
2026-05-07 09:32 49.02525 29.87054 29068 ft 279 kts 171°
2026-05-07 09:32 49.00600 29.87549 29068 ft 279 kts 171°
2026-05-07 09:32 48.98695 29.88040 29069 ft 279 kts 171°
2026-05-07 09:32 48.96778 29.88532 29067 ft 279 kts 170°
2026-05-07 09:33 48.94875 29.89022 29072 ft 279 kts 170°
2026-05-07 09:33 48.92966 29.89512 29072 ft 280 kts 170°
2026-05-07 09:33 48.91052 29.90003 29071 ft 280 kts 170°
2026-05-07 09:33 48.89112 29.90500 29071 ft 280 kts 170°
2026-05-07 09:34 48.87194 29.90992 29070 ft 280 kts 170°
2026-05-07 09:34 48.85270 29.91485 29074 ft 280 kts 171°
2026-05-07 09:34 48.83362 29.91973 29069 ft 280 kts 171°
2026-05-07 09:34 48.81457 29.92460 29067 ft 280 kts 171°
2026-05-07 09:35 48.79530 29.92952 29069 ft 279 kts 171°
2026-05-07 09:35 48.77634 29.93434 29068 ft 280 kts 171°
2026-05-07 09:35 48.75709 29.93925 29072 ft 280 kts 171°
2026-05-07 09:35 48.73786 29.94414 29070 ft 280 kts 171°
2026-05-07 09:36 48.71878 29.94899 29069 ft 280 kts 171°
2026-05-07 09:36 48.69962 29.95387 29069 ft 280 kts 170°
2026-05-07 09:36 48.68035 29.95876 29070 ft 280 kts 170°
2026-05-07 09:36 48.66115 29.96363 29073 ft 280 kts 170°
2026-05-07 09:37 48.64201 29.96849 29076 ft 281 kts 170°
2026-05-07 09:37 48.62280 29.97336 29077 ft 281 kts 170°
2026-05-07 09:37 48.60342 29.97827 29075 ft 281 kts 170°
2026-05-07 09:37 48.58406 29.98317 29074 ft 281 kts 170°
2026-05-07 09:38 48.56508 29.98797 29073 ft 281 kts 170°
2026-05-07 09:38 48.54567 29.99289 29072 ft 281 kts 170°
2026-05-07 09:38 48.52632 29.99776 29082 ft 281 kts 170°
2026-05-07 09:38 48.50721 30.00259 29079 ft 282 kts 170°
2026-05-07 09:39 48.48780 30.00749 29079 ft 282 kts 170°
2026-05-07 09:39 48.46863 30.01230 29079 ft 282 kts 170°
2026-05-07 09:39 48.44921 30.01719 29077 ft 282 kts 170°
2026-05-07 09:39 48.42983 30.02206 29077 ft 282 kts 170°
2026-05-07 09:40 48.41067 30.02688 29075 ft 283 kts 170°
2026-05-07 09:40 48.39111 30.03180 29078 ft 283 kts 170°
2026-05-07 09:40 48.37187 30.03663 29076 ft 283 kts 170°
2026-05-07 09:40 48.35232 30.04152 29078 ft 283 kts 170°
2026-05-07 09:41 48.33312 30.04634 29081 ft 283 kts 170°
2026-05-07 09:41 48.31352 30.05125 29082 ft 284 kts 170°
2026-05-07 09:41 48.29424 30.05607 29079 ft 284 kts 170°
2026-05-07 09:41 48.27470 30.06096 29080 ft 284 kts 170°
2026-05-07 09:42 48.25512 30.06585 29080 ft 284 kts 170°
2026-05-07 09:42 48.23574 30.07069 29078 ft 284 kts 170°
2026-05-07 09:42 48.21619 30.07557 29078 ft 284 kts 170°
2026-05-07 09:42 48.19680 30.08039 29080 ft 284 kts 170°
2026-05-07 09:43 48.17711 30.08529 29081 ft 285 kts 170°
2026-05-07 09:43 48.15763 30.09078 29087 ft 284 kts 166°
2026-05-07 09:43 48.13855 30.09744 29084 ft 285 kts 166°
2026-05-07 09:43 48.11914 30.10419 29083 ft 285 kts 166°
2026-05-07 09:44 48.10008 30.11080 29083 ft 285 kts 166°
2026-05-07 09:44 48.08066 30.11753 29086 ft 285 kts 166°
2026-05-07 09:44 48.06133 30.12422 29086 ft 285 kts 166°
2026-05-07 09:44 48.04210 30.13086 29085 ft 285 kts 166°
2026-05-07 09:45 48.02280 30.13753 29084 ft 285 kts 166°
2026-05-07 09:45 48.00356 30.14417 29087 ft 285 kts 166°
2026-05-07 09:45 47.98404 30.15091 29087 ft 286 kts 166°
2026-05-07 09:45 47.96497 30.15747 29088 ft 286 kts 166°
2026-05-07 09:46 47.94550 30.16417 29087 ft 285 kts 166°
2026-05-07 09:46 47.92602 30.17087 29088 ft 286 kts 166°
2026-05-07 09:46 47.90692 30.17742 29088 ft 286 kts 166°
2026-05-07 09:46 47.88735 30.18415 29084 ft 286 kts 166°
2026-05-07 09:47 47.86795 30.19081 29088 ft 285 kts 166°
2026-05-07 09:47 47.84875 30.19739 29088 ft 285 kts 166°
2026-05-07 09:47 47.82937 30.20403 29083 ft 285 kts 166°
2026-05-07 09:47 47.81015 30.21061 29086 ft 285 kts 166°
2026-05-07 09:48 47.79076 30.21726 29056 ft 283 kts 166°
2026-05-07 09:48 47.77195 30.22370 28765 ft 279 kts 166°
2026-05-07 09:48 47.75283 30.23021 28325 ft 281 kts 166°
2026-05-07 09:48 47.73398 30.23664 27995 ft 280 kts 166°
2026-05-07 09:49 47.71512 30.24308 27712 ft 276 kts 166°
2026-05-07 09:49 47.69640 30.24946 27358 ft 274 kts 166°
2026-05-07 09:49 47.67790 30.25575 27002 ft 273 kts 166°
2026-05-07 09:49 47.65948 30.26202 26671 ft 270 kts 166°
2026-05-07 09:50 47.64117 30.26825 26319 ft 269 kts 166°
2026-05-07 09:50 47.62323 30.27435 25995 ft 266 kts 166°
2026-05-07 09:50 47.60519 30.28046 25656 ft 264 kts 166°
2026-05-07 09:50 47.58736 30.28651 25313 ft 262 kts 166°
2026-05-07 09:51 47.56972 30.29249 24962 ft 261 kts 166°
2026-05-07 09:51 47.55197 30.29851 24615 ft 259 kts 166°
2026-05-07 09:51 47.53447 30.30444 24279 ft 257 kts 165°
2026-05-07 09:51 47.51708 30.31033 23939 ft 256 kts 165°
2026-05-07 09:52 47.49999 30.31611 23615 ft 253 kts 165°
2026-05-07 09:52 47.48286 30.32189 23300 ft 250 kts 165°
2026-05-07 09:52 47.46600 30.32758 22959 ft 249 kts 165°
2026-05-07 09:52 47.44928 30.33323 22646 ft 246 kts 165°
2026-05-07 09:53 47.43275 30.33882 22312 ft 245 kts 165°
2026-05-07 09:53 47.41618 30.34440 21955 ft 244 kts 165°
2026-05-07 09:53 47.39968 30.34998 21616 ft 243 kts 165°
2026-05-07 09:53 47.38322 30.35552 21288 ft 242 kts 165°
2026-05-07 09:54 47.36694 30.36099 20962 ft 241 kts 165°
2026-05-07 09:54 47.35049 30.36651 20628 ft 240 kts 165°
2026-05-07 09:54 47.33440 30.37193 20319 ft 239 kts 165°
2026-05-07 09:54 47.31836 30.37730 20006 ft 237 kts 165°
2026-05-07 09:55 47.30223 30.38273 19687 ft 236 kts 165°
2026-05-07 09:55 47.28632 30.38807 19384 ft 235 kts 165°
2026-05-07 09:55 47.27048 30.39337 19068 ft 235 kts 165°
2026-05-07 09:55 47.25454 30.39871 18767 ft 233 kts 165°
2026-05-07 09:56 47.23875 30.40400 18464 ft 232 kts 165°
2026-05-07 09:56 47.22304 30.40927 18170 ft 231 kts 165°
2026-05-07 09:56 47.20733 30.41452 17877 ft 230 kts 165°
2026-05-07 09:56 47.19186 30.41968 17595 ft 229 kts 165°
2026-05-07 09:57 47.17639 30.42485 17311 ft 227 kts 164°
2026-05-07 09:57 47.16103 30.42997 17026 ft 226 kts 164°
2026-05-07 09:57 47.14582 30.43513 16757 ft 225 kts 164°
2026-05-07 09:57 47.13070 30.44027 16485 ft 223 kts 164°
2026-05-07 09:58 47.11548 30.44544 16202 ft 222 kts 164°
2026-05-07 09:58 47.10045 30.45055 15934 ft 221 kts 164°
2026-05-07 09:58 47.08553 30.45561 15658 ft 221 kts 164°
2026-05-07 09:58 47.07063 30.46062 15382 ft 220 kts 164°
2026-05-07 09:59 47.05570 30.46558 15122 ft 219 kts 164°
2026-05-07 09:59 47.04091 30.47047 14869 ft 217 kts 164°
2026-05-07 09:59 47.02634 30.47525 14611 ft 216 kts 164°
2026-05-07 09:59 47.01167 30.48037 14355 ft 215 kts 163°
2026-05-07 10:00 46.99733 30.48536 14096 ft 214 kts 163°
2026-05-07 10:00 46.98275 30.49035 13832 ft 213 kts 163°
2026-05-07 10:00 46.96856 30.49519 13578 ft 212 kts 163°
2026-05-07 10:00 46.95411 30.50007 13322 ft 212 kts 163°
2026-05-07 10:01 46.93980 30.50489 13076 ft 211 kts 163°
2026-05-07 10:01 46.92545 30.50976 12820 ft 210 kts 163°
2026-05-07 10:01 46.91145 30.51447 12565 ft 209 kts 163°
2026-05-07 10:01 46.89735 30.51923 12403 ft 203 kts 163°
2026-05-07 10:02 46.88349 30.52391 12105 ft 206 kts 163°
2026-05-07 10:02 46.86962 30.52858 11840 ft 206 kts 163°
2026-05-07 10:02 46.85570 30.53327 11593 ft 204 kts 163°
2026-05-07 10:02 46.84202 30.53787 11312 ft 203 kts 163°
2026-05-07 10:03 46.82835 30.54245 11030 ft 202 kts 163°
2026-05-07 10:03 46.81460 30.54708 10758 ft 201 kts 163°
2026-05-07 10:03 46.80105 30.55163 10487 ft 200 kts 163°
2026-05-07 10:03 46.78759 30.55614 10215 ft 200 kts 164°
2026-05-07 10:04 46.77410 30.56067 9939 ft 199 kts 163°
2026-05-07 10:04 46.76062 30.56518 9669 ft 198 kts 164°
2026-05-07 10:04 46.74717 30.56968 9416 ft 197 kts 164°
2026-05-07 10:04 46.73399 30.57396 9155 ft 197 kts 171°
2026-05-07 10:05 46.72028 30.57067 8815 ft 202 kts 195°
2026-05-07 10:05 46.70732 30.56422 8726 ft 191 kts 196°
2026-05-07 10:05 46.69529 30.55704 8544 ft 188 kts 213°
2026-05-07 10:05 46.68869 30.54066 8248 ft 194 kts 265°
2026-05-07 10:06 46.69342 30.52314 7931 ft 194 kts 322°
2026-05-07 10:06 46.70576 30.51875 7713 ft 183 kts 17°
2026-05-07 10:06 46.71513 30.52985 7429 ft 178 kts 70°
2026-05-07 10:06 46.71381 30.54665 7177 ft 176 kts 127°
2026-05-07 10:07 46.70314 30.55485 6918 ft 179 kts 162°
2026-05-07 10:07 46.69146 30.55901 6936 ft 163 kts 166°
2026-05-07 10:07 46.68025 30.56109 6798 ft 160 kts 169°
2026-05-07 10:07 46.66980 30.56308 6824 ft 144 kts 166°
2026-05-07 10:08 46.66030 30.56581 6778 ft 133 kts 163°
2026-05-07 10:08 46.65139 30.56941 6515 ft 136 kts 159°
2026-05-07 10:08 46.64251 30.57355 6290 ft 134 kts 155°
2026-05-07 10:08 46.63382 30.57890 6025 ft 135 kts 151°
2026-05-07 10:09 46.62537 30.58464 5826 ft 132 kts 155°
2026-05-07 10:09 46.61686 30.58913 5633 ft 130 kts 158°
2026-05-07 10:09 46.60835 30.59334 5408 ft 129 kts 158°
2026-05-07 10:09 46.60014 30.59757 5288 ft 120 kts 158°
2026-05-07 10:10 46.59235 30.60134 5121 ft 117 kts 158°
2026-05-07 10:10 46.58459 30.60504 4916 ft 116 kts 159°
2026-05-07 10:10 46.57711 30.60908 4715 ft 115 kts 155°
2026-05-07 10:10 46.56987 30.61331 4439 ft 113 kts 160°
2026-05-07 10:11 46.56235 30.61662 4048 ft 112 kts 162°
2026-05-07 10:11 46.55505 30.61971 3713 ft 108 kts 162°
2026-05-07 10:11 46.54774 30.62234 3322 ft 110 kts 166°
2026-05-07 10:11 46.54052 30.62456 3061 ft 99 kts 165°
2026-05-07 10:12 46.53386 30.62715 2722 ft 101 kts 162°
2026-05-07 10:12 46.52726 30.63013 2420 ft 98 kts 162°
2026-05-07 10:12 46.52063 30.63294 2087 ft 99 kts 165°
2026-05-07 10:12 46.51417 30.63545 1798 ft 96 kts 162°
2026-05-07 10:13 46.50774 30.63825 1568 ft 96 kts 162°
2026-05-07 10:13 46.50124 30.64104 1398 ft 98 kts 162°
2026-05-07 10:13 46.49473 30.64384 1302 ft 100 kts 161°
2026-05-07 10:13 46.48795 30.64675 1300 ft 104 kts 161°
2026-05-07 10:14 46.48100 30.64976 1313 ft 105 kts 162°
2026-05-07 10:14 46.47364 30.65302 1211 ft 109 kts 163°
2026-05-07 10:14 46.46630 30.65620 1121 ft 111 kts 163°
2026-05-07 10:14 46.45866 30.65944 976 ft 112 kts 164°
2026-05-07 10:15 46.45150 30.66252 704 ft 103 kts 165°
2026-05-07 10:15 46.44474 30.66540 398 ft 100 kts 165°
2026-05-07 10:15 46.43825 30.66808 184 ft 89 kts 164°
2026-05-07 10:15 46.43284 30.67046 167 ft 74 kts 163°
2026-05-07 10:16 46.42821 30.67245 165 ft 62 kts 163°
2026-05-07 10:16 46.42460 30.67400 161 ft 45 kts 165°
2026-05-07 10:16 46.42226 30.67524 159 ft 29 kts 145°
2026-05-07 10:16 46.42069 30.67689 158 ft 32 kts 135°
2026-05-07 10:17 46.42051 30.67873 158 ft 15 kts 349°
2026-05-07 10:17 46.42132 30.67834 158 ft 15 kts 344°
2026-05-07 10:17 46.42297 30.67758 159 ft 33 kts 344°
2026-05-07 10:17 46.42459 30.67685 160 ft 21 kts 345°
2026-05-07 10:18 46.42639 30.67609 162 ft 31 kts 345°
2026-05-07 10:18 46.42864 30.67521 164 ft 35 kts 341°
2026-05-07 10:18 46.43078 30.67431 165 ft 26 kts 341°
2026-05-07 10:18 46.43248 30.67350 166 ft 31 kts 343°
2026-05-07 10:19 46.43460 30.67319 166 ft 29 kts
2026-05-07 10:19 46.43683 30.67385 168 ft 32 kts 22°
2026-05-07 10:19 46.43864 30.67431 168 ft 11 kts 60°
2026-05-07 10:19 46.43882 30.67529 170 ft 11 kts 68°
2026-05-07 10:20 46.43909 30.67680 169 ft 11 kts 50°
2026-05-07 10:20 46.43967 30.67677 170 ft 9 kts 348°
2026-05-07 10:20 46.43990 30.67714 170 ft 0 kts 80°
2026-05-07 10:20 46.43990 30.67715 170 ft 0 kts 80°